[[{"header":{"parameterUnit":"m.s-1","parameterCategory":1,"la1":30.2991,"la2":30.254,"lo1":-89.0895,"lo2":-89.0444,"dy":0.0017,"dx":0.0017,"nx":28,"ny":28,"refTime":"2023-09-06T21:00:00:Z","depth":0,"parameterNumber":2,"parameterNumberName":"U-component_of_WINDS"},"data":[0,0,0,0,0,0,0,0,0,0,0,0,0,0,0,0,0,0,0,0,0,0,0,0,0,0,0,0,0,0,0,0,0,0,0,0,0,0,0,0,0,0,0,0,0,0,0,0,0,0,0,0,0,0,0,0,0,0,-0.0161,-0.0157,0,0.0248,0.0252,0.0257,0.0437,0.0436,0.0436,0.0435,0.0868,0.088,0.0892,0,0,0,0,0,0,0,0,0,0,0,0,0,-0.0781,-0.077,-0.0162,-0.0156,-0.0151,0.0247,0.0253,0.0258,0.0437,0.0436,0.0436,0.0435,0.0864,0.0878,0.0893,0,0,0,0,0,0,0,0,0,0,0,0,0,-0.0456,-0.0767,-0.0162,-0.0014,0.0003,0.0246,0.0253,0.026,0.0437,0.0436,0.0435,0.0434,0.0859,0.0877,0.0895,0.1026,0,0,0.095,0.0958,0,0,0,0,0,0,0,0,-0.0474,-0.0433,-0.0041,-0.0024,-0.0004,0.029,0.0193,0.0517,0.0437,0.0273,0.0435,0.0434,0.0677,0.071,0.079,0.1046,0.1065,0.0952,0.0963,0.0971,0.0976,0,0,0,0,0,0,0,-0.0497,-0.045,0.0001,-0.0036,-0.0013,0.0034,0.0079,0.0255,0.0476,0.0287,0.0301,0.0346,0.0688,0.0772,0.0801,0.1071,0.0952,0.0968,0.0979,0.0986,0.1448,0.1449,0,0,0,0,0,0,-0.0545,-0.047,-0.0012,0.0013,-0.0247,0.0045,0.0096,0.0197,0.0474,0.0515,0.0346,0.0353,0.0741,0.078,0.0817,0.0986,0.0971,0.0988,0.0998,0.1446,0.1448,0.145,0,0,0,0,0,0,-0.0559,-0.0506,-0.0028,-0.0224,-0.016,0.0057,0.0169,0.0205,0.029,0.0519,0.056,0.0392,0.0742,0.0792,0.097,0.1003,0.0996,0.1012,0.1445,0.1447,0.1449,0.1324,0,0,0,0,0,0,-0.0578,-0.0512,-0.0461,-0.0225,-0.0151,0.0116,0.0171,0.0214,0.0319,0.0331,0.0573,0.0612,0.0745,0.0942,0.0988,0.1028,0.1027,0.1443,0.1446,0.1448,0.1326,0.1322,0.1317,0,0,0,0,0,-0.0601,-0.0508,-0.0459,-0.0405,-0.0082,0.0117,0.016,0.0308,0.0321,0.0375,0.052,0.0604,0.099,0.0959,0.1012,0.1058,0.1442,0.1445,0.1448,0.1328,0.1323,0.1318,0,0,0,0,0,0,-0.0737,-0.0473,-0.0417,-0.0245,-0.009,0.0147,0.0221,0.0298,0.0458,0.0464,0.0644,0.0696,0.0858,0.0976,0.0936,0.1195,0.1223,0.1237,0.1114,0.111,0.1106,0.1076,0.1042,0,0,0,0,0,-0.075,-0.0613,-0.0388,-0.0259,-0.0184,0.0003,0.0096,0.0194,0.0366,0.0435,0.0595,0.0761,0.0919,0.1021,0.118,0.1341,0.1396,0.1399,0.1394,0.1389,0.1401,0.1491,0.1494,0.146,0.146,0.146,0,0,-0.0768,-0.0608,-0.0531,-0.0283,-0.0149,-0.0011,0.0059,0.0205,0.031,0.0459,0.0636,0.0756,0.0954,0.1122,0.1205,0.1226,0.142,0.1393,0.1388,0.1403,0.1494,0.1497,0.15,0.1462,0.1461,0.1461,0,0,-0.0733,-0.0598,-0.0478,-0.035,-0.0153,-0.0031,-0.0004,0.0219,0.0303,0.048,0.0593,0.0721,0.0991,0.1125,0.1229,0.13,0.1382,0.1346,0.1326,0.1411,0.1414,0.1417,0.1442,0.1448,0.1356,0.1356,0.1356,0,-0.078,-0.057,-0.0425,-0.0288,-0.0183,-0.0052,0.0071,0.019,0.0431,0.0501,0.0518,0.0853,0.0996,0.1195,0.1211,0.1291,0.1328,0.1323,0.1401,0.1406,0.1411,0.1436,0.1445,0.135,0.1351,0.1351,0.1352,0,-0.0639,-0.0496,-0.0422,-0.0203,-0.009,0.004,0.0205,0.0302,0.0387,0.0506,0.0683,0.0856,0.1049,0.1102,0.1192,0.1313,0.1319,0.1365,0.1398,0.1406,0.1433,0.1444,0.1342,0.1344,0.1346,0.1347,0,0,-0.0668,-0.038,-0.0354,-0.0256,-0.0035,0.008,0.0212,0.0395,0.0473,0.0632,0.0748,0.0966,0.1008,0.1125,0.1228,0.1302,0.1344,0.134,0.1347,0.1335,0.1486,0.1451,0.146,0.1396,0.1399,0.1401,0.1469,0,-0.0602,-0.0362,-0.0233,-0.0047,0.0086,0.0206,0.0322,0.047,0.0582,0.0713,0.0839,0.099,0.1034,0.1105,0.1183,0.1322,0.1377,0.1319,0.1509,0.1514,0.1459,0.1474,0.1441,0.1497,0.1481,0.1483,0.1484,0,-0.049,-0.0343,-0.0146,0.0051,0.0112,0.0213,0.0386,0.0508,0.0677,0.0754,0.0876,0.0976,0.112,0.1135,0.1336,0.1292,0.1376,0.1455,0.1461,0.1488,0.1502,0.1503,0.1519,0.1528,0.1502,0.1501,0.15,0,-0.0533,-0.0285,-0.0136,-0.0056,0.0179,0.0246,0.0348,0.0515,0.0613,0.0765,0.083,0.0997,0.1091,0.1218,0.1359,0.1357,0.1545,0.1573,0.1614,0.161,0.1654,0.165,0.1685,0.1702,0.1702,0.1702,0.1701,0,-0.047,-0.0354,-0.0153,-0.0061,0.007,0.0216,0.0343,0.0455,0.06,0.0716,0.0831,0.0938,0.1116,0.1245,0.1357,0.1504,0.1546,0.1612,0.1641,0.1604,0.1595,0.1665,0.1666,0.1704,0.1704,0.1703,0.1703,0,-0.0492,-0.0353,-0.0184,0.002,0.0073,0.0161,0.0337,0.0431,0.0543,0.0688,0.0731,0.0911,0.1067,0.1218,0.1431,0.1505,0.1652,0.1689,0.1594,0.161,0.1643,0.1637,0.1727,0.1745,0.1746,0.1746,0.1746,0,-0.046,-0.0369,-0.016,-0.0078,0.0019,0.0152,0.0249,0.0394,0.0491,0.0683,0.0753,0.0916,0.1055,0.1299,0.1451,0.1612,0.1655,0.1674,0.1681,0.1638,0.1656,0.165,0.1659,0.1672,0.1672,0.1671,0.167,0,-0.0418,-0.0357,-0.0223,-0.0068,0.0043,0.0175,0.0311,0.0373,0.0543,0.0646,0.0803,0.091,0.112,0.1281,0.1457,0.1564,0.1646,0.1665,0.1683,0.1649,0.1589,0.1621,0.1585,0.1665,0.1665,0.1666,0.1666,0.1666,-0.041,-0.0327,-0.017,-0.0026,0.0088,0.0209,0.0305,0.0425,0.0557,0.0736,0.0813,0.0971,0.1132,0.1375,0.1479,0.1606,0.1627,0.1653,0.1661,0.1666,0.1657,0.1563,0.1639,0.1639,0.164,0.164,0.164,0,-0.0363,-0.0259,-0.013,0.0051,0.0163,0.022,0.0371,0.0462,0.0598,0.0738,0.0868,0.1046,0.1199,0.1357,0.1519,0.159,0.1631,0.1628,0.1627,0.1649,0.163,0.1598,0.1591,0.1591,0.1591,0.1591,0.1591,0.1591,-0.0325,-0.0183,-0.0105,0.0094,0.02,0.035,0.0431,0.0543,0.0654,0.0845,0.097,0.1069,0.1216,0.1388,0.153,0.1573,0.1629,0.1615,0.1668,0.1648,0.1651,0.1654,0.1625,0.1625,0.1625,0.1677,0.1678,0.1678]},{"header":{"parameterUnit":"m.s-1","parameterCategory":1,"la1":30.2991,"la2":30.254,"lo1":-89.0895,"lo2":-89.0444,"dy":0.0017,"dx":0.0017,"nx":28,"ny":28,"refTime":"2023-09-06T21:00:00:Z","depth":0,"parameterNumber":3,"parameterNumberName":"V-component_of_WINDS"},"data":[0,0,0,0,0,0,0,0,0,0,0,0,0,0,0,0,0,0,0,0,0,0,0,0,0,0,0,0,0,0,0,0,0,0,0,0,0,0,0,0,0,0,0,0,0,0,0,0,0,0,0,0,0,0,0,0,0,0,4.1925,4.1924,0,4.1842,4.1841,4.184,4.1668,4.1665,4.1661,4.1658,4.1583,4.1584,4.1586,0,0,0,0,0,0,0,0,0,0,0,0,0,4.1941,4.1941,4.1925,4.1924,4.1923,4.1842,4.1841,4.184,4.1669,4.1664,4.166,4.1656,4.1583,4.1584,4.1586,0,0,0,0,0,0,0,0,0,0,0,0,0,4.1904,4.1942,4.1925,4.1827,4.1818,4.1843,4.1841,4.184,4.167,4.1664,4.1659,4.1654,4.1582,4.1584,4.1586,4.1702,0,0,4.1592,4.1592,0,0,0,0,0,0,0,0,4.1906,4.1904,4.1843,4.1834,4.1823,4.176,4.1819,4.1794,4.1671,4.1726,4.1658,4.1652,4.1647,4.1643,4.1639,4.1699,4.1696,4.1592,4.1593,4.1594,4.1594,0,0,0,0,0,0,0,4.1909,4.1906,4.1892,4.1842,4.183,4.179,4.1779,4.1814,4.1717,4.1721,4.1708,4.17,4.1641,4.1638,4.1636,4.1695,4.1592,4.1593,4.1595,4.1595,4.1844,4.1849,0,0,0,0,0,0,4.1925,4.191,4.1895,4.189,4.1852,4.1794,4.1781,4.1786,4.1716,4.17,4.1705,4.1692,4.1637,4.1634,4.1633,4.1764,4.1594,4.1596,4.1597,4.1839,4.1845,4.1851,0,0,0,0,0,0,4.1926,4.1925,4.1898,4.1896,4.189,4.1799,4.1805,4.1787,4.1784,4.1704,4.1687,4.1719,4.1633,4.163,4.1685,4.1759,4.1596,4.1598,4.1832,4.1841,4.1848,4.2028,0,0,0,0,0,0,4.1927,4.1926,4.1968,4.1898,4.189,4.1951,4.181,4.1789,4.1786,4.177,4.1713,4.1699,4.1629,4.1683,4.1687,4.1759,4.16,4.1825,4.1836,4.1846,4.2015,4.2041,4.2064,0,0,0,0,0,4.1928,4.2025,4.1971,4.1971,4.194,4.1955,4.1951,4.1865,4.1793,4.1835,4.1783,4.1701,4.175,4.1691,4.1693,4.1767,4.182,4.1833,4.1845,4.2004,4.2036,4.2063,0,0,0,0,0,0,4.211,4.2014,4.1954,4.203,4.2002,4.1926,4.1977,4.1902,4.1896,4.1881,4.1778,4.1767,4.1836,4.1806,4.1742,4.1875,4.1772,4.1785,4.1892,4.1922,4.1946,4.1952,4.1601,0,0,0,0,0,4.2158,4.2176,4.2092,4.2167,4.2156,4.2069,4.2072,4.2008,4.1976,4.1964,4.1917,4.1891,4.19,4.1909,4.1913,4.2009,4.1995,4.2061,4.2085,4.2105,4.2119,4.2167,4.2195,4.1892,4.1891,4.1891,0,0,4.226,4.2209,4.2227,4.2202,4.2173,4.2195,4.206,4.209,4.2106,4.197,4.2018,4.1982,4.1946,4.2022,4.2053,4.2,4.2199,4.2121,4.2138,4.214,4.2183,4.2212,4.2237,4.19,4.1898,4.1897,0,0,4.2456,4.2419,4.2477,4.2449,4.2404,4.2346,4.236,4.2295,4.2264,4.231,4.2207,4.2226,4.2245,4.2223,4.2215,4.24,4.2324,4.2404,4.2532,4.258,4.2604,4.2625,4.2691,4.2716,4.2418,4.2418,4.2418,0,4.2589,4.2615,4.2517,4.2552,4.2545,4.2418,4.2477,4.2456,4.2417,4.2416,4.2355,4.2374,4.2341,4.2409,4.2454,4.2451,4.2466,4.2411,4.2608,4.2628,4.2646,4.2708,4.2733,4.2428,4.2427,4.2426,4.2425,0,4.278,4.2801,4.2853,4.2814,4.2812,4.286,4.2771,4.2782,4.2717,4.2666,4.2714,4.2669,4.2662,4.2673,4.2613,4.2733,4.2701,4.2626,4.2521,4.2687,4.2743,4.2766,4.2443,4.2439,4.2436,4.2434,0,0,4.3092,4.2995,4.3016,4.2996,4.2936,4.2951,4.2993,4.2982,4.2993,4.297,4.3003,4.302,4.2949,4.294,4.2875,4.2917,4.3067,4.2837,4.2834,4.2882,4.3197,4.3255,4.3284,4.3014,4.3019,4.3022,4.32,0,4.3275,4.3337,4.325,4.3333,4.3351,4.323,4.3266,4.3235,4.3187,4.3197,4.3145,4.3158,4.3064,4.3057,4.3093,4.3041,4.3129,4.3027,4.3047,4.3049,4.3061,4.3313,4.3375,4.3545,4.3222,4.3225,4.3228,0,4.3498,4.3481,4.3566,4.3498,4.3502,4.3537,4.3518,4.3528,4.3491,4.3453,4.3441,4.3362,4.34,4.3296,4.3348,4.328,4.3283,4.3259,4.3264,4.3264,4.315,4.3322,4.3598,4.3624,4.3262,4.3259,4.3257,0,4.3716,4.3715,4.3765,4.3752,4.3675,4.3702,4.3672,4.3627,4.3626,4.3611,4.3609,4.3601,4.3597,4.3592,4.3514,4.3445,4.3576,4.3465,4.3548,4.355,4.3582,4.3582,4.3864,4.3583,4.3582,4.3582,4.3581,0,4.3931,4.3988,4.3862,4.3893,4.3953,4.3852,4.3915,4.3873,4.3834,4.3857,4.3752,4.3775,4.3669,4.3682,4.3622,4.3674,4.3673,4.3645,4.3629,4.3655,4.3659,4.3657,4.3644,4.3588,4.3587,4.3586,4.3584,0,4.4187,4.4104,4.4151,4.4072,4.4054,4.4102,4.4036,4.4063,4.4007,4.4036,4.4037,4.3951,4.396,4.388,4.3876,4.3835,4.3917,4.3879,4.3929,4.3918,4.4005,4.3998,4.4297,4.4331,4.4028,4.403,4.4033,0,4.433,4.437,4.4295,4.43,4.4274,4.4285,4.4281,4.4183,4.4184,4.4142,4.4175,4.4174,4.4169,4.419,4.4129,4.4125,4.4087,4.4191,4.4086,4.4111,4.4089,4.4088,4.4092,4.4215,4.4219,4.4222,4.4224,0,4.4592,4.4549,4.4546,4.453,4.4527,4.4511,4.4487,4.4498,4.4391,4.4399,4.4404,4.44,4.4393,4.4395,4.4378,4.4349,4.4271,4.4257,4.4276,4.4305,4.4332,4.4319,4.3991,4.4252,4.4249,4.4247,4.4245,4.4244,4.4796,4.4825,4.4776,4.4777,4.4748,4.4728,4.4748,4.4693,4.4695,4.468,4.4622,4.4639,4.4599,4.4567,4.4545,4.4558,4.4508,4.4535,4.4542,4.4551,4.4567,4.4329,4.4555,4.4554,4.4553,4.4552,4.4552,0,4.5053,4.5015,4.5016,4.4984,4.4985,4.4906,4.4875,4.4882,4.4897,4.4864,4.486,4.4867,4.4868,4.4805,4.4798,4.4821,4.4784,4.4823,4.4821,4.4816,4.4612,4.4597,4.4852,4.4852,4.4852,4.4852,4.4852,4.4852,4.5188,4.5233,4.5184,4.5214,4.5175,4.5188,4.5177,4.5159,4.5132,4.5143,4.5142,4.5099,4.5055,4.5044,4.5041,4.5023,4.5026,4.5077,4.5047,4.4859,4.483,4.4802,4.4787,4.5078,4.5079,4.5249,4.5251,4.5252]}]]